Weather History for 41194 - May, 2013

Change the Weather History Date:

Wednesday, May 22, 2013

  Actual Average Record
Temperature  
Mean Temperature 91 °F -  
Max Temperature 103 °F 100 °F - ()
Min Temperature 79 °F 79 °F - ()
Cooling Degree Days 26    
Growing Degree Days 41 (Base 50)    
Moisture  
Dew Point 53 °F    
Average Humidity 29    
Maximum Humidity 62    
Minimum Humidity 4    
Precipitation  
Precipitation 0.00 in 0.00 in - ()
Sea Level Pressure  
Sea Level Pressure 29.73 in    
Wind  
Wind Speed 5 mph ()    
Max Wind Speed 14 mph    
Max Gust Speed -    
Visibility 6.0 miles    
Events      
T = Trace of Precipitation, MM = Missing Value Source: Averaged Metar Reports

Daily Weather History Graph

Daily Weather History Graph

Search for Another Location

Airport or City:

Trip Planner

Search our weather history database for the weather conditions in past years. The results will help you decide how hot, cold, wet, or windy it might be!

Date:

Astronomy

May. 22, 2013 Rise Set
Actual Time 5:30 AM GST 6:59 PM GST
Civil Twilight 5:05 AM GST 7:24 PM GST
Nautical Twilight 4:35 AM GST 7:55 PM GST
Astronomical Twilight 4:04 AM GST 8:26 PM GST
Moon 4:09 PM GST (5/22) 3:00 AM GST (5/22)
Length of Visible Light 14h 19m
Length of Day
13h 29m
Waxing Gibbous, 89% of the Moon is Illuminated
May 22
Waxing Gibbous
May 25
Full
May 31
Last Quarter
Jun 8
New
Jun 16
First Quarter

Hourly Weather History & Observations

Time (GST) Temp. Heat Index Dew Point Humidity Pressure Visibility Wind Dir Wind Speed Gust Speed Precip Events Conditions
12:00 AM 82.4 °F 84.6 °F 66.2 °F 58% 29.74 in - SE 3.5 mph - N/A   Clear
1:00 AM 82 °F - 68 °F 55% 29.73 in 6 mi SSE 3.5 mph - -  
1:00 AM 82.4 °F 85.4 °F 68.0 °F 62% 29.71 in - SSE 3.5 mph - N/A   Clear
2:00 AM 80.6 °F 82.7 °F 66.2 °F 61% 29.71 in - SE 5.8 mph - N/A   Clear
3:00 AM 82.4 °F 82.9 °F 60.8 °F 48% 29.71 in - SE 3.5 mph - N/A   Clear
4:00 AM 82 °F - 61 °F 39% 29.71 in 6 mi ESE 3.5 mph - -  
4:00 AM 82.4 °F 82.9 °F 60.8 °F 48% 29.71 in - ESE 3.5 mph - N/A   Clear
5:00 AM 80.6 °F 81.5 °F 60.8 °F 51% 29.71 in - SE 3.5 mph - N/A   Clear
6:00 AM 80.6 °F 81.1 °F 59.0 °F 48% 29.71 in - SE 3.5 mph - N/A   Clear
7:00 AM 83 °F - 52 °F 24% 29.75 in 6 mi SE 2.3 mph - -  
7:00 AM 82.4 °F - 51.8 °F 35% 29.74 in - SE 2.3 mph - N/A   Clear
8:00 AM 89.6 °F - 42.8 °F 20% 29.74 in - ESE 2.3 mph - N/A   Clear
9:00 AM 95.0 °F - 33.8 °F 12% 29.77 in - Variable 2.3 mph - N/A   Clear
10:00 AM 98 °F - 31 °F 4% 29.78 in 6 mi SE 3.5 mph - -  
10:00 AM 98.6 °F - 30.2 °F 9% 29.77 in - SE 3.5 mph - N/A   Clear
11:00 AM 102.2 °F - 35.6 °F 10% 29.77 in - Variable 5.8 mph - N/A   Clear
12:00 PM 100.4 °F 98.4 °F 53.6 °F 21% 29.74 in - NNW 11.5 mph - N/A   Clear
1:00 PM 103 °F - 45 °F 8% 29.75 in 6 mi NW 9.2 mph - -  
1:00 PM 102.2 °F - 44.6 °F 14% 29.74 in - NW 9.2 mph - N/A   Clear
2:00 PM 100.4 °F 98.8 °F 55.4 °F 22% 29.71 in - NW 12.7 mph - N/A   Clear
3:00 PM 98.6 °F - 51.8 °F 21% 29.71 in - NW 11.5 mph - N/A   Clear
4:00 PM 96 °F - 56 °F 18% 29.71 in 6 mi NW 13.8 mph - -  
4:00 PM 96.8 °F 95.8 °F 57.2 °F 27% 29.71 in - NW 13.8 mph - N/A   Clear
5:00 PM 96.8 °F 95.1 °F 55.4 °F 25% 29.71 in - NW 11.5 mph - N/A   Clear
6:00 PM 93.2 °F 91.9 °F 57.2 °F 30% 29.71 in - NNW 6.9 mph - N/A   Clear
7:00 PM 93 °F - 58 °F 22% 29.72 in 6 mi NNW 3.5 mph - -  
7:00 PM 93.2 °F 92.6 °F 59.0 °F 32% 29.71 in - NNW 3.5 mph - N/A   Clear
8:00 PM 93.2 °F 91.3 °F 55.4 °F 28% 29.71 in - Variable 2.3 mph - N/A   Clear
9:00 PM 93.2 °F - 51.8 °F 24% 29.71 in - ESE 4.6 mph - N/A   Clear
10:00 PM 94 °F - 52 °F 15% 29.74 in 6 mi SSE 4.6 mph - -  
10:00 PM 95.0 °F - 51.8 °F 23% 29.71 in - SSE 4.6 mph - N/A   Clear
11:00 PM 93.2 °F 90.8 °F 53.6 °F 26% 29.71 in - Variable 2.3 mph - N/A   Clear